STARLINK-30515, 57983

Orbit data source: Space-Track

STARLINK-30515, 57983 is a payload satellite owned by SpaceX/Seattle (US) in LEO that was launched on Sat, 30 Sep 2023 UTC via an FALCON 9 launch vehicle from the Air Force Eastern Test Range (AFETR). Payload-class satellites include a variety of spacecraft equipped with specific instruments for various scientific and technological missions. These include communications satellites like Starlink; space stations such as the ISS; scientific satellites like the Hubble; Earth observation satellites from companies like Planet Labs, Umbra, and HawkEye 360; GPS; miniature CubeSats for education and research; and military/defense satellites.

Loading next visibility...
Identifier
57983, 2023-151V
Orbit
LEO
Country
Flag of USUS
Related business
Manufacturer
SpaceX/Seattle
Mission
Operational Commercial Communications
Bus & Motor
STARLINK V2M, Unknown motor
Mass
730 kg wet, ~700 kg dry
Launch date (UTC)
2023-09-30 (3 years ago)
Launch vehicle
FALCON 9
Launch site
Air Force Eastern Test Range (AFETR)
Object type
Payload
Rocket body
Debris
Shape & HBR
Box + 2 Pan, 17.7 m
Radar Cross Section
33.884 m², Large (>1 m²)

Expand to show TLE details & history
Last TLE update: 1 day ago

TLE from 1 day ago
0 STARLINK-30515
1 57983U 23151V   26175.13500635  .00003127  00000-0  12317-3 0  9998
2 57983  43.0007 112.8648 0001154 272.2297  87.8422 15.27562540151825
Epoch: 2026-06-24T03:14Z
TLE epoch observation values (Epoch: 2026-06-24T03:14:24.548Z)
Latitude
-0.00006°
Longitude
151.96588°
Altitude
482.847 km
Speed
7.626 km/s
True Right ascension
07h 31m 27s
True Declination
0° 00' 00"
Sunlit
Object was in daylight at epoch
Visualization orbit readout
Latitude
Unknown
Longitude
Unknown
Altitude
Unknown
Speed
Unknown
Apparent Right ascension
Unknown
Apparent Declination
Unknown
Sunlit
N/A
Visualization observer readout
Local Sidereal Time
15:08:18
Azimuth
Unknown
Elevation
Unknown
Doppler factor
Unknown
Orbital elements
Apogee altitude
485.838 km
Perigee altitude
484.254 km
Semi-major axis
6,863.183 km
Eccentricity
0.00012
Inclination
43.0007°
RAAN
112.8648°
Arg. of periapsis
272.2297°
True anomaly
87.85541°
Mean anomaly
87.8422°
Eccentric anomaly
87.84881°
Mean motion
3.81729 °/min
Orbital period
94.31 mins
BSTAR
0.00012317
Loading maneuver chart data...
Computing Atmospheric mass density...
Loading historical data...
Loading historical data...
Loading historical data...
Loading historical data...
Loading historical data...
Loading historical data...
Loading historical data...

Documentation

Showing up to 5 results
|